SCP
0 0 0 0 0 0 0 0 0 0 0 0 0 0 0 0 0 0 0 0 0 0 0 0 0 0 0 0 0 0 0 0 0 0 0 0 0 0 0 0 0 0 0 0
0 0 0 0 0 0 0 0 0 0 0 0 0 0 0 0 0 0 0 0 0 0 0 0 0 0 0 0 0 0 0 0 0 0 0 0 0 0 0 0 0 0 0 0
0 0 0 0 0 0 0 0 0 0 0 0 0 0 0 0 0 0 0 0 0 0 0 0 0 0 0 0 0 0 0 0 0 0 0 0 0 0 0 0 0 0 0 0
0 0 0 0 0 0 0 0 0 0 0 0 0 0 0 0 0 0 0 0 0 0 0 0 0 0 0 0 0 0 0 0 0 0 0 0 0 0 0 0 0 0 0 0
0 0 0 0 0 0 0 0 0 0 0 0 0 0 0 0 0 0 0 0 0 0 0 0 0 0 0 0 0 0 0 0 0 0 0 0 0 0 0 0 0 0 0 0
0 0 0 0 0 0 0 0 0 0 0 0 0 0 0 0 0 0 0 0 0 0 0 0 0 0 0 0 0 0 0 0 0 0 0 0 0 0 0 0 0 0 0 0
0 0 0 0 0 0 0 0 0 0 0 0 0 0 0 0 0 0 0 0 0 0 0 0 0 0 0 0 0 0 0 0 0 0 0 0 0 0 0 0 0 0 0 0
0 0 0 0 0 0 0 0 0 0 0 0 0 0 0 0 0 0 0 0 0 0 0 0 0 0 0 0 0 0 0 0 0 0 0 0 0 0 0 0 0 0 0 0
0 0 0 0 0 0 0 0 0 0 0 0 0 0 0 0 0 0 0 0 0 0 0 0 0 0 0 0 0 0 0 0 0 0 0 0 0 0 0 0 0 0 0 0
0 0 0 0 0 0 0 0 0 0 0 0 0 0 0 0 0 0 0 0 0 0 0 0 0 0 0 0 0 0 0 0 0 0 0 0 0 0 0 0 0 0 0 0
0 0 0 0 0 0 0 0 0 0 0 0 0 0 0 0 0 0 0 0 0 0 0 0 0 0 0 0 0 0 0 0 0 0 0 0 0 0 0 0 0 0 0 0
0 0 0 0 0 0 0 0 0 0 0 0 0 0 0 0 0 0 0 0 0 0 0 0 0 0 0 0 0 0 0 0 0 0 0 0 0 0 0 0 0 0 0 0
0 0 0 0 0 0 0 0 0 0 0 0 0 0 0 0 0 0 0 0 0 0 0 0 0 0 0 0 0 0 0 0 0 0 0 0 0 0 0 0 0 0 0 0
0 0 0 0 0 0 0 0 0 0 0 0 0 0 0 0 0 0 0 0 0 0 0 0 0 0 0 0 0 0 0 0 0 0 0 0 0 0 0 0 0 0 0 0
-0 0 0 0 0 0 0 0 0 0 0 0 0 0 0 0 0 0 0 0 0 0 0 0 0 0 0 0 0 0 0 0 0 0 0 0 0 0 0 0 0 0 0 0
0 -0 0 -0 0 0 0 0 0 0 0 0 0 0 0 0 0 0 0 0 0 0 0 0 0 0 0 0 0 0 0 0 0 0 0 0 0 0 0 0 0 0 0 0
0 0 0 0 0 0 0 0 0 0 0 0 0 0 0 0 0 0 0 0 0 0 0 0 0 0 0 0 0 0 0 0 0 0 0 0 0 0 0 0 0 0 0 0
0 0 0 0 0 0 0 0 0 0 0 0 0 0 0 0 0 0 0 0 0 0 0 0 0 0 0 0 0 0 0 0 0 0 0 0 0 0 0 0 0 0 0 0
-0 -0 0 0 0 0 0 0 0 0 0 0 0 0 0 0 0 0 0 0 0 0 0 0 0 0 0 0 0 0 0 0 0 0 0 0 0 0 0 0 0 0 0 0
-0 0 0 0 0 0 0 0 0 0 0 0 0 0 0 0 0 0 0 0 0 0 0 0 0 0 0 0 0 0 0 0 0 0 0 0 0 0 0 0 0 0 0 0
0 0 0 0 0 0 0 0 0 0 0 0 0 0 0 0 0 0 0 0 0 0 0 0 0 0 0 0 0 0 0 0 0 0 0 0 0 0 0 0 0 0 0 0
0 0 0 0 0 0 0 -0 0 0 0 0 0 0 0 0 0 0 0 0 0 0 0 0 0 0 0 0 0 0 0 0 0 0 0 0 0 0 0 0 0 0 0 0
0 0 0 0 0 0 0 0 0 0 0 0 0 0 0 0 0 0 0 0 0 0 0 0 0 0 0 0 0 0 0 0 0 0 0 0 0 0 0 0 0 0 0 0
0 0 0 0 0 0 0 0 0 0 0 0 0 0 0 0 0 0 0 0 0 0 0 0 0 0 0 0 0 0 0 0 0 0 0 0 0 0 0 0 0 0 0 0
0 0 0 0 0 0 0 0 0 0 0 0 0 0 0 0 0 0 0 0 0 0 0 0 0 0 0 0 0 0 0 0 0 0 0 0 0 0 0 0 0 0 0 0
0 0 0 0 0 0 0 0 0 0 0 0 0 0 0 0 0 0 0 0 0 0 0 0 0 0 0 0 0 0 0 0 0 0 0 0 0 0 0 0 0 0 0 0
0 0 0 0 0 0 0 0 0 0 0 0 0 0 0 0 0 0 0 0 0 0 0 0 0 0 0 0 0 0 0 0 0 0 0 0 0 0 0 0 0 0 0 0
Wind_Speed_500mb
29 22 24 38 38 37 33 8 7 16 28 12 9 8 8 10 8 5 3 2 2 4 9 9 6 11 1 6 13 10 4 8 8 16 2 1 3 11 12 9 9 9 5 9
38 21 17 25 32 30 28 14 10 13 35 8 7 4 5 7 8 9 9 9 3 1 9 5 8 8 4 4 5 10 8 4 1 6 2 4 7 8 7 9 6 13 5 13
38 17 31 49 17 28 24 11 3 10 24 17 8 11 10 11 9 7 7 7 7 5 6 2 9 7 4 6 2 5 2 5 12 13 6 10 9 10 11 12 7 10 22 25
41 34 36 36 21 25 18 18 10 9 6 13 12 12 15 11 12 7 14 2 11 13 11 8 10 7 4 0 5 4 7 10 6 9 9 7 13 13 16 19 17 17 18 12
43 37 45 36 31 21 36 15 9 9 14 21 21 13 12 19 9 16 11 10 17 13 12 13 15 15 11 11 7 10 3 6 1 7 12 3 9 19 22 28 11 14 6 10
42 42 41 49 47 37 25 24 22 8 7 10 6 6 12 17 22 10 7 19 10 14 9 16 18 15 14 21 17 15 12 8 5 8 7 11 16 25 14 6 5 7 11 10
28 35 39 43 46 47 39 26 15 12 5 6 11 9 4 8 8 11 8 10 12 18 27 27 19 21 18 14 14 7 10 10 6 6 4 6 6 2 5 8 3 2 10 9
27 25 31 37 42 45 49 45 27 18 5 8 5 6 5 21 10 7 6 3 11 35 18 7 6 6 6 3 7 7 4 7 4 5 7 12 4 7 10 11 9 8 16 19
32 27 24 32 42 44 47 46 37 18 13 11 8 8 8 3 5 5 4 13 33 22 5 6 11 11 8 8 2 5 5 8 6 5 6 12 9 5 7 7 7 16 22 22
36 33 30 30 38 47 48 48 43 32 16 11 18 9 8 17 12 5 8 10 7 12 4 4 7 8 7 9 12 9 6 3 13 9 7 14 8 17 11 10 10 31 28 20
37 36 34 33 34 53 44 44 30 40 18 15 22 22 12 14 18 8 17 11 2 3 7 7 7 7 10 6 9 11 13 14 7 4 3 17 32 11 11 11 28 39 23 14
37 36 33 28 33 40 42 47 42 43 18 13 18 18 19 21 23 22 37 6 12 23 7 4 4 2 3 6 6 1 6 8 8 13 7 3 50 5 16 24 30 27 21 16
31 30 23 22 30 33 37 28 29 34 16 9 9 11 16 17 17 20 13 9 10 5 4 6 3 4 4 8 8 4 4 5 4 4 3 22 24 25 27 19 18 16 14 12
18 23 21 24 25 24 25 21 28 35 12 8 6 5 7 20 26 28 24 10 20 17 13 5 4 5 5 4 3 5 5 13 9 2 2 18 23 23 20 19 15 14 11 11
25 26 20 18 20 20 20 22 29 37 8 9 11 13 9 4 13 17 16 18 22 19 10 4 3 4 4 4 4 3 16 10 8 9 25 9 12 36 25 20 17 13 9 10
18 21 21 21 18 17 20 9 15 20 15 10 7 9 11 14 15 21 21 23 18 10 8 8 7 5 3 3 4 5 18 13 17 14 34 14 26 29 22 20 16 11 11 13
17 15 9 5 9 15 3 6 22 28 19 8 9 5 5 10 9 13 16 11 10 8 8 6 6 4 7 4 6 8 20 18 18 28 29 23 27 16 23 18 13 12 9 11
15 12 27 26 21 14 11 18 31 23 8 10 7 2 3 3 4 5 5 5 7 9 7 6 4 5 2 7 10 19 24 26 28 27 13 12 20 18 18 14 11 9 10 12
24 26 27 19 9 6 15 22 15 5 2 9 7 7 5 4 5 5 5 5 4 4 5 5 1 1 7 8 16 30 34 27 30 24 16 17 16 15 14 12 9 9 12 18
27 28 7 5 10 28 20 4 4 1 6 8 9 7 2 5 5 3 3 4 3 2 2 2 4 6 5 6 5 19 26 20 29 29 21 20 18 16 13 8 10 12 15 21
18 7 6 23 20 5 3 3 7 9 9 10 8 8 6 5 5 4 3 3 2 4 6 5 4 6 4 5 6 20 27 20 22 13 7 11 10 11 10 8 10 15 19 24
10 16 24 15 4 6 10 2 6 9 0 4 5 7 7 7 5 7 3 4 5 2 2 6 5 5 14 5 16 27 27 22 20 13 7 7 6 6 7 8 13 18 21 23
18 9 7 4 8 15 8 3 7 5 2 5 6 4 5 6 7 11 6 8 4 2 4 5 6 12 13 7 16 25 28 26 19 13 9 7 7 6 9 13 18 20 20 22
5 5 9 6 7 4 4 4 3 2 3 12 9 9 4 5 7 2 7 5 2 5 4 6 4 20 14 8 16 20 23 21 16 13 11 9 8 10 13 17 21 21 19 20
8 7 4 5 9 6 4 4 2 5 10 11 8 8 3 4 6 3 5 6 2 7 7 5 14 22 15 9 20 21 18 17 15 12 11 12 14 15 17 20 21 20 20 18
9 13 9 9 6 4 5 5 5 8 13 3 1 4 5 3 6 4 5 7 7 6 4 10 19 14 12 4 12 18 16 15 14 15 15 17 18 18 20 21 22 23 22 20
8 9 16 14 13 8 6 7 7 6 2 1 3 4 5 3 5 4 0 5 4 7 12 15 14 10 8 6 6 11 15 17 17 18 19 19 20 22 24 24 23 26 24 22
Wind_Direction_500mb
250 249 263 265 266 260 238 230 251 192 176 173 198 189 202 165 165 182 209 205 114 126 159 173 228 198 182 125 160 158 176 143 204 219 190 293 168 190 157 153 233 230 217 253
250 255 269 274 265 257 255 188 271 210 185 189 224 224 160 179 150 186 182 176 165 185 175 192 162 147 185 168 152 171 181 209 347 287 327 330 212 206 180 117 99 211 169 264
262 242 251 254 267 269 253 180 242 227 207 251 194 167 203 185 183 160 161 149 126 134 202 223 171 148 188 190 106 144 156 219 201 203 182 138 189 205 201 159 162 229 223 262
262 262 257 237 234 255 222 185 218 242 219 258 225 180 166 148 183 209 180 168 206 171 188 186 198 117 116 102 175 176 145 225 241 259 241 197 210 199 214 209 223 214 273 243
258 251 248 253 263 247 216 181 191 210 282 300 201 174 219 184 158 154 216 201 191 191 181 194 197 142 173 191 166 170 171 257 22 276 266 266 241 231 229 240 235 247 243 238
259 250 252 251 257 247 230 210 204 188 274 332 333 234 208 203 144 205 172 195 135 179 184 127 106 98 95 162 154 179 163 173 120 261 324 339 290 236 218 146 77 159 201 209
262 256 247 252 252 243 245 230 203 154 257 202 210 295 164 159 232 154 171 156 146 141 132 113 95 74 77 97 62 122 162 148 148 263 334 245 255 118 141 128 211 128 88 132
249 255 250 243 246 251 248 249 247 173 236 215 238 258 114 115 89 64 103 76 137 149 131 87 79 6 14 92 49 34 52 143 184 200 222 319 301 216 180 160 258 197 145 160
249 250 258 248 239 247 244 252 248 202 144 221 206 144 177 157 75 38 36 136 146 154 116 141 180 207 199 215 234 10 88 75 142 122 204 247 234 185 155 125 291 171 158 161
251 251 251 252 237 240 246 241 246 215 175 214 194 184 193 165 155 133 148 158 141 160 135 150 188 221 145 186 181 170 137 132 206 212 227 286 209 155 142 92 240 169 162 163
255 253 254 250 229 237 237 247 234 216 189 196 205 203 184 162 170 151 148 99 243 65 178 184 230 194 200 158 152 175 169 157 196 121 169 273 152 119 179 165 143 162 176 198
256 255 251 250 219 232 240 240 230 214 208 170 193 188 200 205 197 163 172 172 164 178 182 211 124 140 117 137 222 255 206 184 181 189 220 104 167 187 170 154 160 181 196 213
249 244 229 188 224 230 231 239 229 211 193 121 165 190 195 187 189 182 175 169 153 207 115 117 135 192 147 179 226 126 203 153 160 126 183 164 161 152 165 175 181 190 204 224
138 143 168 195 213 222 226 226 199 200 155 118 53 141 206 209 201 200 201 183 182 185 179 143 176 205 218 191 141 198 145 143 155 31 87 166 204 202 195 193 199 198 223 254
124 140 168 195 207 220 225 234 218 197 196 125 128 106 68 112 167 181 187 190 189 176 155 127 163 115 105 48 46 251 186 172 172 217 185 162 201 201 202 205 202 218 245 271
131 146 170 192 200 204 166 137 187 199 122 107 130 131 102 125 152 160 166 169 161 144 108 105 101 97 107 126 216 262 188 187 175 162 155 157 148 173 192 206 213 237 259 276
126 131 135 172 156 146 171 174 166 162 146 97 94 65 107 126 111 102 85 103 91 98 99 68 111 127 135 147 216 195 174 165 152 152 150 134 160 177 190 204 212 233 265 283
105 104 122 104 108 104 102 128 148 141 140 137 115 296 110 134 64 58 80 78 70 60 100 116 102 125 164 253 228 162 167 156 154 164 175 155 171 169 179 194 215 237 269 292
110 120 115 92 84 80 119 132 144 122 137 113 99 129 182 105 80 78 62 68 60 77 81 72 86 216 227 257 193 183 181 173 178 170 161 154 168 176 191 204 227 258 291 306
123 119 96 97 117 123 122 112 183 173 52 68 87 116 124 105 138 62 87 31 98 100 311 35 106 256 277 276 291 220 190 184 174 167 177 189 197 202 210 228 261 285 306 306
127 104 86 131 126 88 72 86 50 2 37 36 66 75 133 125 109 138 57 189 3 76 272 115 311 289 299 273 211 174 188 182 170 187 186 175 193 200 225 248 281 302 310 312
120 117 118 126 73 57 75 314 357 49 258 54 55 68 79 101 105 98 36 113 35 221 355 72 308 257 334 228 182 176 182 187 192 199 198 188 206 215 251 289 300 309 310 309
116 90 93 63 13 40 82 324 318 26 110 149 142 68 62 89 78 71 67 71 207 304 52 230 229 342 341 213 200 196 192 193 202 211 220 228 245 271 296 302 305 308 306 305
72 69 43 73 358 47 168 192 213 46 21 151 135 101 69 78 64 67 92 242 45 50 26 247 260 341 337 236 207 202 203 203 207 219 231 247 270 286 293 298 302 303 301 300
70 44 70 64 123 68 76 116 107 109 151 157 115 92 118 53 84 71 111 40 309 197 224 238 335 338 325 241 213 211 210 216 222 235 251 266 274 279 287 294 297 298 296 293
61 60 76 101 113 86 68 47 97 143 165 192 186 117 65 3 130 87 216 115 211 250 238 330 338 343 348 274 211 212 222 235 245 254 260 265 270 279 288 292 297 297 295 291
59 65 76 87 79 82 64 72 71 128 322 6 83 69 212 99 45 19 70 178 231 347 330 330 342 338 338 334 275 256 257 259 261 262 264 267 275 284 289 294 294 292 290 286
Wind_Speed_850mb
29 22 24 38 38 37 33 8 7 16 28 12 9 8 8 10 8 5 3 2 2 4 9 9 6 11 1 6 13 10 4 8 8 16 2 1 3 11 12 9 9 9 5 9
38 21 17 25 32 30 28 14 10 13 35 8 7 4 5 7 8 9 9 9 3 1 9 5 8 8 4 4 5 10 8 4 1 6 2 4 7 8 7 9 6 13 5 13
38 17 31 49 17 28 24 11 3 10 24 17 8 11 10 11 9 7 7 7 7 5 6 2 9 7 4 6 2 5 2 5 12 13 6 10 9 10 11 12 7 10 22 25
41 34 36 36 21 25 18 18 10 9 6 13 12 12 15 11 12 7 14 2 11 13 11 8 10 7 4 0 5 4 7 10 6 9 9 7 13 13 16 19 17 17 18 12
43 37 45 36 31 21 36 15 9 9 14 21 21 13 12 19 9 16 11 10 17 13 12 13 15 15 11 11 7 10 3 6 1 7 12 3 9 19 22 28 11 14 6 10
42 42 41 49 47 37 25 24 22 8 7 10 6 6 12 17 22 10 7 19 10 14 9 16 18 15 14 21 17 15 12 8 5 8 7 11 16 25 14 6 5 7 11 10
28 35 39 43 46 47 39 26 15 12 5 6 11 9 4 8 8 11 8 10 12 18 27 27 19 21 18 14 14 7 10 10 6 6 4 6 6 2 5 8 3 2 10 9
27 25 31 37 42 45 49 45 27 18 5 8 5 6 5 21 10 7 6 3 11 35 18 7 6 6 6 3 7 7 4 7 4 5 7 12 4 7 10 11 9 8 16 19
32 27 24 32 42 44 47 46 37 18 13 11 8 8 8 3 5 5 4 13 33 22 5 6 11 11 8 8 2 5 5 8 6 5 6 12 9 5 7 7 7 16 22 22
36 33 30 30 38 47 48 48 43 32 16 11 18 9 8 17 12 5 8 10 7 12 4 4 7 8 7 9 12 9 6 3 13 9 7 14 8 17 11 10 10 31 28 20
37 36 34 33 34 53 44 44 30 40 18 15 22 22 12 14 18 8 17 11 2 3 7 7 7 7 10 6 9 11 13 14 7 4 3 17 32 11 11 11 28 39 23 14
37 36 33 28 33 40 42 47 42 43 18 13 18 18 19 21 23 22 37 6 12 23 7 4 4 2 3 6 6 1 6 8 8 13 7 3 50 5 16 24 30 27 21 16
31 30 23 22 30 33 37 28 29 34 16 9 9 11 16 17 17 20 13 9 10 5 4 6 3 4 4 8 8 4 4 5 4 4 3 22 24 25 27 19 18 16 14 12
18 23 21 24 25 24 25 21 28 35 12 8 6 5 7 20 26 28 24 10 20 17 13 5 4 5 5 4 3 5 5 13 9 2 2 18 23 23 20 19 15 14 11 11
25 26 20 18 20 20 20 22 29 37 8 9 11 13 9 4 13 17 16 18 22 19 10 4 3 4 4 4 4 3 16 10 8 9 25 9 12 36 25 20 17 13 9 10
18 21 21 21 18 17 20 9 15 20 15 10 7 9 11 14 15 21 21 23 18 10 8 8 7 5 3 3 4 5 18 13 17 14 34 14 26 29 22 20 16 11 11 13
17 15 9 5 9 15 3 6 22 28 19 8 9 5 5 10 9 13 16 11 10 8 8 6 6 4 7 4 6 8 20 18 18 28 29 23 27 16 23 18 13 12 9 11
15 12 27 26 21 14 11 18 31 23 8 10 7 2 3 3 4 5 5 5 7 9 7 6 4 5 2 7 10 19 24 26 28 27 13 12 20 18 18 14 11 9 10 12
24 26 27 19 9 6 15 22 15 5 2 9 7 7 5 4 5 5 5 5 4 4 5 5 1 1 7 8 16 30 34 27 30 24 16 17 16 15 14 12 9 9 12 18
27 28 7 5 10 28 20 4 4 1 6 8 9 7 2 5 5 3 3 4 3 2 2 2 4 6 5 6 5 19 26 20 29 29 21 20 18 16 13 8 10 12 15 21
18 7 6 23 20 5 3 3 7 9 9 10 8 8 6 5 5 4 3 3 2 4 6 5 4 6 4 5 6 20 27 20 22 13 7 11 10 11 10 8 10 15 19 24
10 16 24 15 4 6 10 2 6 9 0 4 5 7 7 7 5 7 3 4 5 2 2 6 5 5 14 5 16 27 27 22 20 13 7 7 6 6 7 8 13 18 21 23
18 9 7 4 8 15 8 3 7 5 2 5 6 4 5 6 7 11 6 8 4 2 4 5 6 12 13 7 16 25 28 26 19 13 9 7 7 6 9 13 18 20 20 22
5 5 9 6 7 4 4 4 3 2 3 12 9 9 4 5 7 2 7 5 2 5 4 6 4 20 14 8 16 20 23 21 16 13 11 9 8 10 13 17 21 21 19 20
8 7 4 5 9 6 4 4 2 5 10 11 8 8 3 4 6 3 5 6 2 7 7 5 14 22 15 9 20 21 18 17 15 12 11 12 14 15 17 20 21 20 20 18
9 13 9 9 6 4 5 5 5 8 13 3 1 4 5 3 6 4 5 7 7 6 4 10 19 14 12 4 12 18 16 15 14 15 15 17 18 18 20 21 22 23 22 20
8 9 16 14 13 8 6 7 7 6 2 1 3 4 5 3 5 4 0 5 4 7 12 15 14 10 8 6 6 11 15 17 17 18 19 19 20 22 24 24 23 26 24 22
Wind_Direction_850mb
250 249 263 265 266 260 238 230 251 192 176 173 198 189 202 165 165 182 209 205 114 126 159 173 228 198 182 125 160 158 176 143 204 219 190 293 168 190 157 153 233 230 217 253
250 255 269 274 265 257 255 188 271 210 185 189 224 224 160 179 150 186 182 176 165 185 175 192 162 147 185 168 152 171 181 209 347 287 327 330 212 206 180 117 99 211 169 264
262 242 251 254 267 269 253 180 242 227 207 251 194 167 203 185 183 160 161 149 126 134 202 223 171 148 188 190 106 144 156 219 201 203 182 138 189 205 201 159 162 229 223 262
262 262 257 237 234 255 222 185 218 242 219 258 225 180 166 148 183 209 180 168 206 171 188 186 198 117 116 102 175 176 145 225 241 259 241 197 210 199 214 209 223 214 273 243
258 251 248 253 263 247 216 181 191 210 282 300 201 174 219 184 158 154 216 201 191 191 181 194 197 142 173 191 166 170 171 257 22 276 266 266 241 231 229 240 235 247 243 238
259 250 252 251 257 247 230 210 204 188 274 332 333 234 208 203 144 205 172 195 135 179 184 127 106 98 95 162 154 179 163 173 120 261 324 339 290 236 218 146 77 159 201 209
262 256 247 252 252 243 245 230 203 154 257 202 210 295 164 159 232 154 171 156 146 141 132 113 95 74 77 97 62 122 162 148 148 263 334 245 255 118 141 128 211 128 88 132
249 255 250 243 246 251 248 249 247 173 236 215 238 258 114 115 89 64 103 76 137 149 131 87 79 6 14 92 49 34 52 143 184 200 222 319 301 216 180 160 258 197 145 160
249 250 258 248 239 247 244 252 248 202 144 221 206 144 177 157 75 38 36 136 146 154 116 141 180 207 199 215 234 10 88 75 142 122 204 247 234 185 155 125 291 171 158 161
251 251 251 252 237 240 246 241 246 215 175 214 194 184 193 165 155 133 148 158 141 160 135 150 188 221 145 186 181 170 137 132 206 212 227 286 209 155 142 92 240 169 162 163
255 253 254 250 229 237 237 247 234 216 189 196 205 203 184 162 170 151 148 99 243 65 178 184 230 194 200 158 152 175 169 157 196 121 169 273 152 119 179 165 143 162 176 198
256 255 251 250 219 232 240 240 230 214 208 170 193 188 200 205 197 163 172 172 164 178 182 211 124 140 117 137 222 255 206 184 181 189 220 104 167 187 170 154 160 181 196 213
249 244 229 188 224 230 231 239 229 211 193 121 165 190 195 187 189 182 175 169 153 207 115 117 135 192 147 179 226 126 203 153 160 126 183 164 161 152 165 175 181 190 204 224
138 143 168 195 213 222 226 226 199 200 155 118 53 141 206 209 201 200 201 183 182 185 179 143 176 205 218 191 141 198 145 143 155 31 87 166 204 202 195 193 199 198 223 254
124 140 168 195 207 220 225 234 218 197 196 125 128 106 68 112 167 181 187 190 189 176 155 127 163 115 105 48 46 251 186 172 172 217 185 162 201 201 202 205 202 218 245 271
131 146 170 192 200 204 166 137 187 199 122 107 130 131 102 125 152 160 166 169 161 144 108 105 101 97 107 126 216 262 188 187 175 162 155 157 148 173 192 206 213 237 259 276
126 131 135 172 156 146 171 174 166 162 146 97 94 65 107 126 111 102 85 103 91 98 99 68 111 127 135 147 216 195 174 165 152 152 150 134 160 177 190 204 212 233 265 283
105 104 122 104 108 104 102 128 148 141 140 137 115 296 110 134 64 58 80 78 70 60 100 116 102 125 164 253 228 162 167 156 154 164 175 155 171 169 179 194 215 237 269 292
110 120 115 92 84 80 119 132 144 122 137 113 99 129 182 105 80 78 62 68 60 77 81 72 86 216 227 257 193 183 181 173 178 170 161 154 168 176 191 204 227 258 291 306
123 119 96 97 117 123 122 112 183 173 52 68 87 116 124 105 138 62 87 31 98 100 311 35 106 256 277 276 291 220 190 184 174 167 177 189 197 202 210 228 261 285 306 306
127 104 86 131 126 88 72 86 50 2 37 36 66 75 133 125 109 138 57 189 3 76 272 115 311 289 299 273 211 174 188 182 170 187 186 175 193 200 225 248 281 302 310 312
120 117 118 126 73 57 75 314 357 49 258 54 55 68 79 101 105 98 36 113 35 221 355 72 308 257 334 228 182 176 182 187 192 199 198 188 206 215 251 289 300 309 310 309
116 90 93 63 13 40 82 324 318 26 110 149 142 68 62 89 78 71 67 71 207 304 52 230 229 342 341 213 200 196 192 193 202 211 220 228 245 271 296 302 305 308 306 305
72 69 43 73 358 47 168 192 213 46 21 151 135 101 69 78 64 67 92 242 45 50 26 247 260 341 337 236 207 202 203 203 207 219 231 247 270 286 293 298 302 303 301 300
70 44 70 64 123 68 76 116 107 109 151 157 115 92 118 53 84 71 111 40 309 197 224 238 335 338 325 241 213 211 210 216 222 235 251 266 274 279 287 294 297 298 296 293
61 60 76 101 113 86 68 47 97 143 165 192 186 117 65 3 130 87 216 115 211 250 238 330 338 343 348 274 211 212 222 235 245 254 260 265 270 279 288 292 297 297 295 291
59 65 76 87 79 82 64 72 71 128 322 6 83 69 212 99 45 19 70 178 231 347 330 330 342 338 338 334 275 256 257 259 261 262 264 267 275 284 289 294 294 292 290 286